Retour au catalogue

OT-FOREST-19 PATADASTRA

ActifScienceSSO
NORAD 69001·PAYLOAD·🇬🇷 Greece

Lancé May 3, 2026 depuis Vandenberg Space Force Base

Loading…

Prochains Passages (prochaines 24 heures)

TLE

FraisSource: Space-Track

Époque: Sep 13, 2026, 16:05 UTC

1 69001U 26100X   26256.67063652  .00001150  00000-0  11626-3 0  9997
2 69001  97.7243 152.6119 0002828  79.2854 280.8684 14.92914943 19899

Suivez OT-FOREST-19 PATADASTRA en temps réel avec AllMySat

Download on the App Store